Create Custom Reports and Graphics: Custom Report

Belmont 8000'

Squaw Valley

1/23/22 4:45 AM (-08:00)
Updated Every 15 Minutes
Temp 24.6 °F   5.7
RH 74 %   8
Dew Pt 17.6 °F   3.2
Wet Bulb 22.1 °F   4.7
Wind Dir E | 87 °
Wind Spd 5.7 mph   10.1
Wind Gust 10.3 mph   16.5
WindChill 18.0 °F   13.5
Daily Min Temp 23.5 °F   4.9
Daily Max Temp 25.1 °F   3.3
Latest Rain 0.00 In
Daily Rain 0.00 In
New Snow 0.0 in
SnowDepth 105.1 in

Last 24 Hours

OV-Belmont 8000'

Hourly Data | America/Los_Angeles
as of 1/23/22 4:47 AM PST
Date & Time Temp (°F) RH (%) Dew Pt (°F) Wet Bulb (°F) Wind Dir (°) Wind Spd (mph) Wind Gust (mph) WindChill (°F) Latest Rain (In) New Snow (in) SnowDepth (in) Daily Min Temp (°F) Daily Max Temp (°F) Daily Rain (In)
1/23/22 - 0400 23.8 83 19.4 22.2 ENE | 77 6.1 12.5 16.7 0.00 0.0 105.1 23.5 25.1 0.00
1/23/22 - 0300 23.7 83 19.2 22.1 ENE | 75 6.2 13.1 17.0 0.00 0.0 105.2 23.5 25.1 0.00
1/23/22 - 0200 24.3 78 18.5 22.2 E | 82 4.6 10.3 19.1 0.00 0.0 105.2 23.8 25.1 0.00
1/23/22 - 0100 24.0 76 17.5 21.7 E | 91 4.9 14.7 19.4 0.00 0.0 105.2 23.9 25.1 0.00
1/23/22 - 0000 24.0 76 17.5 21.7 E | 88 4.7 13.9 19.7 0.00 0.0 105.2 17.9 30.8 0.00
1/22/22 - 2300 24.8 72 17.0 22.0 E | 92 9.1 22.3 16.4 0.00 0.0 105.2 17.9 30.8 0.00
1/22/22 - 2200 24.9 69 16.2 21.8 E | 96 9.6 23.2 15.0 0.00 0.0 105.3 17.9 30.8 0.00
1/22/22 - 2100 24.6 71 16.4 21.7 E | 89 9.4 29.2 15.3 0.00 0.0 105.3 17.9 30.8 0.00
1/22/22 - 2000 24.6 70 16.3 21.7 E | 83 9.4 20.2 16.0 0.00 0.0 105.3 17.9 30.8 0.00
1/22/22 - 1900 26.0 61 14.4 22.0 ENE | 68 12.2 24.6 15.1 0.00 0.0 105.3 17.9 30.8 0.00
1/22/22 - 1800 26.1 68 16.9 22.8 E | 89 11.0 22.8 15.7 0.00 0.0 105.4 17.9 30.8 0.00
1/22/22 - 1700 26.0 73 18.4 23.2 E | 98 9.3 23.8 18.6 0.00 0.0 105.4 17.9 30.8 0.00
1/22/22 - 1600 28.2 62 16.9 24.1 E | 89 9.1 24.4 22.5 0.00 0.0 105.3 17.9 30.8 0.00
1/22/22 - 1500 29.9 58 16.9 25.2 E | 95 7.9 20.3 22.5 0.00 0.0 105.4 17.9 30.5 0.00
1/22/22 - 1400 28.7 63 17.9 24.7 E | 82 9.5 21.0 19.9 0.00 0.0 105.4 17.9 30.2 0.00
1/22/22 - 1300 26.4 68 17.1 23.1 ESE | 109 9.4 20.2 18.9 0.00 0.0 105.4 17.9 29.3 0.00
1/22/22 - 1200 27.0 69 18.3 23.8 E | 81 9.0 23.6 17.4 0.00 0.0 105.4 17.9 27.0 0.00
1/22/22 - 1100 25.6 70 17.3 22.7 E | 92 8.3 18.3 16.7 0.00 0.0 105.5 17.9 26.4 0.00
1/22/22 - 1000 24.0 72 16.1 21.2 ENE | 62 12.5 25.6 11.0 0.00 0.0 105.5 17.9 24.2 0.00
1/22/22 - 0900 21.4 75 14.6 19.2 ENE | 60 13.7 27.2 7.9 0.00 0.0 105.5 17.9 21.8 0.00
1/22/22 - 0800 19.0 83 14.6 17.6 ENE | 68 10.4 24.0 7.8 0.00 0.0 105.6 17.9 21.8 0.00
1/22/22 - 0700 18.2 86 14.6 17.0 ENE | 64 11.5 22.7 6.4 0.00 0.0 105.6 18.1 21.8 0.00
1/22/22 - 0600 18.4 86 14.8 17.2 ENE | 65 14.6 30.3 5.3 0.00 0.0 105.6 18.2 21.8 0.00
1/22/22 - 0500 19.0 81 14.1 17.4 NE | 55 15.2 26.7 5.0 0.00 0.0 105.6 18.6 21.8 0.00
1/22/22 - 0400 19.4 80 14.4 17.8 NE | 55 13.3 24.3 7.2 0.00 0.0 105.7 19.3 21.8 0.00
Max 29.9 86 19.4 25.2 - 15.2 30.3 22.5 0.00 0.0 105.7 23.9 30.8 0.00
Avg 24.1 73 16.6 21.4 - 9.6 21.6 14.9 0.00 0.0 105.4 - - -
Min 18.2 58 14.1 17.0 - 4.6 10.3 5.0 0.00 0.0 105.1 17.9 21.8 0.00
Total - - - - - - - - 0.00 - - - - -

Last 30 Days

OV-Belmont 8000'

Daily Data | America/Los_Angeles
as of 1/23/22 4:47 AM PST
Date Daily Max Temp (°F) Time of Max Temp Daily Min Temp (°F) Time of Min Temp Daily Rain (In) Seasonal Rainfall (In) New Snow (in) SnowDepth (in) Wind Spd (mph) Daily Max Wind (mph) Time of Max Wind Max Wind Dir (°) Max RH (%) Min RH (%) Wet Bulb (°F) WetB Hrs <28F (hrs) Bat Volt Min Day (V)
1/22/22 30.8 1512 17.9 0715 0.00 160.30 0.0 105.2 10.6 30.3 0511 ENE | 71 86 52 20.9 24.0 13.1
1/21/22 34.7 0001 20.1 2321 0.00 160.30 0.0 105.7 10.4 30.1 1534 NE | 38 86 29 21.4 24.0 13.1
1/20/22 53.0 1215 28.0 0432 0.00 160.30 0.0 106.1 4.2 18.2 2358 WNW | 298 81 31 31.0 8.4 13.0
1/19/22 41.3 1308 26.7 0653 0.00 160.30 0.0 106.9 4.1 14.1 1716 ENE | 72 78 44 26.6 20.3 13.0
1/18/22 50.0 1343 28.2 0415 0.00 160.30 0.0 107.3 3.3 14.8 0754 NW | 325 68 33 28.2 12.7 13.0
1/17/22 44.2 1223 30.3 2359 0.00 160.30 0.0 108.0 6.1 16.2 0921 S | 184 87 32 29.0 9.8 13.0
1/16/22 47.9 1216 34.0 2333 0.00 160.30 0.0 108.7 6.5 22.4 1248 SW | 230 50 6 28.6 11.6 13.0
1/15/22 50.5 1120 28.9 0319 0.00 160.30 0.0 109.4 0.7 7.7 0015 SW | 236 59 8 26.5 17.5 13.0
1/14/22 36.0 0002 24.6 0609 0.00 160.30 0.0 110.2 5.3 22.4 1510 ESE | 110 94 22 25.7 20.3 13.1
1/13/22 42.1 1320 32.7 2309 0.00 160.30 0.0 111.0 12.7 47.9 0923 SSE | 164 37 18 27.6 15.4 13.0
1/12/22 64.6 1243 39.9 2355 0.00 160.30 0.0 112.1 5.0 23.6 2251 SSW | 194 40 17 34.1 0.0 13.0
1/11/22 53.3 1243 30.9 0201 0.00 160.30 0.0 113.4 1.3 7.7 0628 NNE | 18 63 27 30.4 6.2 13.0
1/10/22 48.4 1316 29.4 0421 0.00 160.30 0.0 114.5 4.0 23.8 0047 SSE | 153 63 24 26.5 17.2 13.0
1/9/22 50.6 1256 20.2 0127 0.00 160.30 0.0 116.0 4.5 21.8 0446 ESE | 116 85 16 24.1 20.8 13.1
1/8/22 36.8 1318 19.2 0103 0.02 160.30 0.0 117.5 4.1 16.7 1917 E | 98 99 41 21.3 23.6 13.1
1/7/22 32.5 0024 19.5 2351 0.56 160.30 0.0 119.3 12.5 51.4 0250 ENE | 75 100 74 26.4 16.9 13.1
1/6/22 42.6 1303 32.2 2359 0.00 159.80 0.0 117.3 11.0 33.6 2102 ESE | 113 96 48 34.6 0.0 13.0
1/5/22 40.1 2020 27.2 0149 0.01 159.80 0.0 119.4 6.4 22.9 1059 W | 278 100 59 32.6 1.5 13.0
1/4/22 29.8 2131 27.2 1740 0.64 159.80 0.0 122.2 16.1 47.7 0055 E | 95 100 94 28.2 9.7 13.0
1/3/22 28.1 2309 21.2 0304 0.05 159.10 7.4 119.5 14.0 59.1 2351 ESE | 114 100 34 20.2 24.0 13.1
1/2/22 29.0 1416 22.6 2359 0.00 159.10 1.1 115.5 14.8 39.0 2112 ENE | 76 60 26 20.1 24.0 13.1
1/1/22 34.5 1243 7.6 0152 0.00 159.10 0.0 119.4 2.6 14.9 2259 S | 188 97 35 17.4 23.6 13.1
12/31/21 22.4 1230 8.4 2358 0.17 159.10 0.0 122.4 12.4 40.8 0001 SSE | 156 100 96 16.4 24.0 13.1
12/30/21 24.0 1137 18.3 0518 0.05 158.90 4.2 123.8 15.5 36.7 2352 ESE | 102 100 98 20.6 24.0 13.1
12/29/21 21.4 1109 18.1 0405 0.68 158.80 0.0 127.3 7.5 27.7 0818 N | 6 100 99 19.5 24.0 13.1
12/28/21 18.8 2357 11.8 0724 0.43 158.20 0.8 125.5 10.6 32.4 0232 S | 185 100 97 15.1 24.0 13.1
12/27/21 16.6 0414 12.1 1933 0.11 157.70 12.1 94.4 18.1 46.9 1304 S | 169 98 96 14.7 24.0 13.2
12/26/21 15.3 2359 9.2 0752 0.09 157.60 8.0 114.0 17.2 48.3 0856 E | 93 98 95 12.2 24.0 13.2
12/25/21 21.1 1446 13.9 2309 0.23 157.50 13.7 95.8 17.1 48.8 1052 SSE | 150 100 98 18.7 24.0 13.2
12/24/21 26.2 0952 17.7 1538 1.21 157.30 1.8 77.3 14.8 48.0 2254 E | 86 100 99 22.5 24.0 13.1
Max 64.6 - 39.9 - 1.21 - 13.7 127.3 18.1 59.1 - - 100 99 34.6 24.0 13.2
Avg - - - - - - 1.6 112.2 9.1 - - - - - 24.0 - -
Min 15.3 - 7.6 - 0.00 - 0.0 77.3 0.7 7.7 - - 37 6 12.2 0.0 13.0
Calm: 0.0%
Calm: 0.3%